Hillsdale, MI

10:56 AM EDT on September 21, 2017 (GMT -0400)
Hillsdale Municipal

Weather History for KJYM - September, 2013

Change the Weather History Date:

Sunday, September 15, 2013

  Actual Average Record
Temperature  
Mean Temperature 55 °F -  
Max Temperature 65 °F 73 °F 86 °F (1955)
Min Temperature 45 °F 48 °F 34 °F (1953)
Degree Days  
Heating Degree Days 10    
Growing Degree Days 5 (Base 50)    
Moisture  
Dew Point 49 °F    
Average Humidity 81    
Maximum Humidity 100    
Minimum Humidity 53    
Precipitation  
Precipitation 0.00 in - - ()
Sea Level Pressure  
Sea Level Pressure 30.10 in    
Wind  
Wind Speed 2 mph (SSW)    
Max Wind Speed 10 mph    
Max Gust Speed 16 mph    
Visibility 9 miles    
Events Rain    
Averages and records for this station are not official NWS values.
T = Trace of Precipitation, MM = Missing Value Source: NWS Daily Summary

Daily Weather History Graph

Daily Weather History Graph

Search for Another Location

Airport or City:

Trip Planner

Search our weather history database for the weather conditions in past years. The results will help you decide how hot, cold, wet, or windy it might be!

Date:

Astronomy

Sep. 15, 2013 Rise Set
Actual Time 7:18 AM EDT 7:47 PM EDT
Civil Twilight 6:50 AM EDT 8:15 PM EDT
Nautical Twilight 6:17 AM EDT 8:48 PM EDT
Astronomical Twilight 5:43 AM EDT 9:22 PM EDT
Moon 5:17 PM EDT (9/15) 2:52 AM EDT (9/15)
Length of Visible Light 13h 24m
Length of Day
12h 28m
Waxing Gibbous, 82% of the Moon is Illuminated
Sep 15
Waxing Gibbous
Sep 19
Full
Sep 26
Last Quarter
Oct 4
New
Oct 11
First Quarter

Hourly Weather History & Observations

Time (EDT) Temp. Windchill Dew Point Humidity Pressure Visibility Wind Dir Wind Speed Gust Speed Precip Events Conditions
12:14 AM 49.1 °F - 45.0 °F 86% 30.10 in 10.0 mi Calm Calm - N/A   Clear
12:35 AM 46.9 °F - 45.0 °F 93% 30.10 in 10.0 mi Calm Calm - N/A   Clear
12:54 AM 46.8 °F - 45.0 °F 93% 30.10 in 10.0 mi Calm Calm - N/A   Clear
1:15 AM 46.2 °F - 44.4 °F 93% 30.10 in 10.0 mi Calm Calm - N/A   Clear
1:34 AM 45.3 °F - 44.1 °F 95% 30.09 in 10.0 mi Calm Calm - N/A   Clear
1:54 AM 45.1 °F - 44.1 °F 96% 30.09 in 10.0 mi Calm Calm - N/A   Clear
2:15 AM 45.0 °F - 44.1 °F 97% 30.09 in 10.0 mi Calm Calm - N/A   Clear
2:34 AM 45.0 °F - 43.9 °F 96% 30.09 in 10.0 mi Calm Calm - N/A   Clear
2:54 AM 45.9 °F - 44.6 °F 95% 30.09 in 10.0 mi Calm Calm - N/A   Clear
3:15 AM 45.5 °F - 44.8 °F 97% 30.09 in 10.0 mi Calm Calm - N/A   Clear
3:34 AM 45.9 °F - 45.1 °F 97% 30.09 in 10.0 mi Calm Calm - N/A   Clear
3:55 AM 46.4 °F 45.2 °F 45.5 °F 97% 30.09 in 10.0 mi South 3.5 mph - N/A   Clear
4:15 AM 47.3 °F - 44.6 °F 90% 30.09 in 10.0 mi South 4.6 mph - N/A   Clear
4:34 AM 47.7 °F - 44.2 °F 88% 30.09 in 10.0 mi South 3.5 mph - N/A   Clear
4:55 AM 48.0 °F - 43.0 °F 83% 30.09 in 10.0 mi South 4.6 mph - N/A   Clear
5:15 AM 48.7 °F - 42.4 °F 79% 30.10 in 10.0 mi South 3.5 mph - N/A   Clear
5:34 AM 48.2 °F - 43.2 °F 83% 30.10 in 10.0 mi South 3.5 mph - N/A   Clear
5:55 AM 48.0 °F - 41.7 °F 79% 30.10 in 10.0 mi South 3.5 mph - N/A   Clear
6:15 AM 50.4 °F - 40.3 °F 68% 30.11 in 10.0 mi South 4.6 mph - N/A   Clear
6:34 AM 50.5 °F - 41.2 °F 70% 30.11 in 10.0 mi SSW 4.6 mph - N/A   Clear
6:55 AM 51.3 °F - 41.9 °F 70% 30.12 in 10.0 mi SW 3.5 mph - N/A   Clear
7:15 AM 52.2 °F - 41.9 °F 68% 30.12 in 10.0 mi SW 4.6 mph - N/A   Clear
7:34 AM 52.9 °F - 42.4 °F 68% 30.12 in 10.0 mi Calm Calm - N/A   Clear
7:55 AM 52.3 °F - 43.7 °F 72% 30.12 in 10.0 mi Calm Calm - N/A   Clear
8:15 AM 53.1 °F - 44.4 °F 72% 30.12 in 10.0 mi Calm Calm - N/A   Clear
8:34 AM 53.2 °F - 45.1 °F 74% 30.12 in 10.0 mi Calm Calm - N/A   Clear
8:55 AM 53.8 °F - 45.0 °F 72% 30.12 in 10.0 mi South 3.5 mph - N/A   Clear
9:14 AM 53.8 °F - 45.5 °F 74% 30.12 in 10.0 mi South 3.5 mph - N/A   Clear
9:35 AM 55.8 °F - 46.6 °F 71% 30.11 in 10.0 mi SSW 4.6 mph - N/A   Clear
9:55 AM 57.4 °F - 45.7 °F 65% 30.11 in 10.0 mi SW 5.8 mph - N/A   Clear
10:14 AM 60.3 °F - 45.9 °F 59% 30.10 in 10.0 mi SSW 6.9 mph - N/A   Clear
10:35 AM 59.5 °F - 46.2 °F 61% 30.10 in 10.0 mi SSW 5.8 mph - N/A   Clear
10:55 AM 61.2 °F - 47.8 °F 62% 30.10 in 10.0 mi SSW 5.8 mph - N/A   Clear
11:14 AM 62.2 °F - 47.1 °F 58% 30.09 in 10.0 mi South 5.8 mph - N/A   Clear
11:35 AM 62.2 °F - 46.8 °F 57% 30.09 in 10.0 mi South 5.8 mph - N/A   Clear
11:55 AM 63.0 °F - 48.4 °F 59% 30.09 in 10.0 mi Calm Calm - N/A   Clear
12:14 PM 62.8 °F - 46.9 °F 56% 30.09 in 10.0 mi SSW 5.8 mph - N/A   Scattered Clouds
12:35 PM 63.3 °F - 47.3 °F 56% 30.08 in 10.0 mi SSW 3.5 mph - N/A   Scattered Clouds
12:55 PM 63.9 °F - 47.3 °F 55% 30.09 in 10.0 mi SSW 5.8 mph - N/A Rain Light Rain
1:14 PM 64.2 °F - 48.4 °F 56% 30.09 in 10.0 mi Calm Calm - N/A   Scattered Clouds
1:35 PM 65.7 °F - 48.9 °F 55% 30.09 in 10.0 mi WNW 3.5 mph - N/A   Scattered Clouds
1:54 PM 65.1 °F - 47.7 °F 53% 30.08 in 10.0 mi Calm Calm - N/A   Scattered Clouds
2:14 PM 65.7 °F - 49.1 °F 55% 30.08 in 10.0 mi West 4.6 mph - N/A Rain Light Rain
2:35 PM 64.8 °F - 49.1 °F 57% 30.08 in 10.0 mi Calm Calm - N/A   Mostly Cloudy
2:54 PM 64.9 °F - 49.8 °F 58% 30.08 in 10.0 mi Calm Calm - N/A   Mostly Cloudy
3:15 PM 63.9 °F - 51.3 °F 64% 30.07 in 10.0 mi Calm Calm - N/A Rain Light Rain
3:34 PM 63.9 °F - 53.6 °F 69% 30.07 in 10.0 mi Calm Calm - N/A Rain Light Rain
3:54 PM 63.3 °F - 53.2 °F 70% 30.06 in 10.0 mi Calm Calm - N/A Rain Light Rain
4:15 PM 63.3 °F - 53.1 °F 69% 30.06 in 10.0 mi Calm Calm - N/A Rain Light Rain
4:34 PM 62.8 °F - 54.0 °F 73% 30.05 in 10.0 mi NNW 4.6 mph - N/A Rain Light Rain
4:55 PM 62.1 °F - 55.8 °F 80% 30.07 in 10.0 mi NNW 5.8 mph - N/A Rain Light Rain
5:14 PM 59.2 °F - 55.2 °F 87% 30.09 in 10.0 mi North 10.4 mph 16.1 mph N/A Rain Light Rain
5:35 PM 57.0 °F - 54.5 °F 91% 30.10 in 7.0 mi North 9.2 mph - N/A Rain Rain
5:55 PM 56.8 °F - 55.8 °F 96% 30.11 in 10.0 mi North 6.9 mph - N/A Rain Light Rain
6:14 PM 55.9 °F - 55.0 °F 97% 30.12 in 10.0 mi North 3.5 mph - N/A Rain Light Rain
6:35 PM 55.6 °F - 54.5 °F 96% 30.10 in 10.0 mi Calm Calm - N/A Rain Light Rain
6:54 PM 55.2 °F - 54.7 °F 98% 30.10 in 10.0 mi ENE 3.5 mph - N/A   Light Drizzle
7:14 PM 54.9 °F - 54.3 °F 98% 30.10 in 7.0 mi Calm Calm - N/A Rain Light Rain
7:35 PM 55.0 °F - 54.7 °F 99% 30.11 in 10.0 mi NE 3.5 mph - N/A Rain Light Rain
7:54 PM 54.9 °F - 54.7 °F 99% 30.10 in 7.0 mi ENE 3.5 mph - N/A Rain Light Rain
8:14 PM 54.9 °F - 54.7 °F 99% 30.11 in 7.0 mi Calm Calm - N/A Rain Light Rain
8:35 PM 54.9 °F - 54.7 °F 99% 30.12 in 7.0 mi East 3.5 mph - N/A   Drizzle
8:54 PM 54.9 °F - 54.7 °F 99% 30.12 in 7.0 mi Calm Calm - N/A Rain Light Rain
9:15 PM 54.9 °F - 54.7 °F 99% 30.12 in 7.0 mi Calm Calm - N/A   Drizzle
9:35 PM 54.9 °F - 54.7 °F 99% 30.13 in 7.0 mi Calm Calm - N/A   Light Drizzle
9:54 PM 54.9 °F - 54.9 °F 100% 30.13 in 5.0 mi Calm Calm - N/A   Overcast
10:15 PM 54.9 °F - 54.9 °F 100% 30.13 in 7.0 mi Calm Calm - N/A   Overcast
10:35 PM 54.9 °F - 54.9 °F 100% 30.13 in 7.0 mi Calm Calm - N/A   Overcast
10:54 PM 54.9 °F - 54.9 °F 100% 30.13 in 5.0 mi Calm Calm - N/A   Overcast
11:15 PM 54.9 °F - 54.9 °F 100% 30.13 in 7.0 mi Calm Calm - N/A   Overcast
11:34 PM 54.9 °F - 54.9 °F 100% 30.13 in 7.0 mi Calm Calm - N/A   Overcast
11:55 PM 55.2 °F - 55.2 °F 100% 30.14 in 7.0 mi Calm Calm - N/A   Overcast